Rochester, Indiana, United States (46975)
Lat: 41.06N, Lon: 86.22W
Wx Zone: INZ015
Local Info
Past Weather Observations for Today

NOTE: This archive is for the closest National Weather Service station to Rochester. Information may differ from the station used for current weather conditions.

Click here for Long-term Archive

Time Weather Temperature Dewpoint Humidity Pressure Winds Precip Visibility
10:55
Overcast
57°F / 14°C 50°F / 10°C 77% 30.06 in
(1018 mb)
SSE 4.6 mph
(SSE 7 kph)
- 10SM
10:35
Overcast
55°F / 13°C 50°F / 10°C 82% 30.06 in
(1018 mb)
SE 6.9 mph
(SE 11 kph)
- 10SM
10:15
Overcast
57°F / 14°C 50°F / 10°C 77% 30.06 in
(1018 mb)
SE 6.9 mph
(SE 11 kph)
- 10SM
09:55
Mostly Cloudy
55°F / 13°C 50°F / 10°C 82% 30.06 in
(1018 mb)
SE 9.2 mph
(SE 15 kph)
- 10SM
09:35
Mostly Cloudy
55°F / 13°C 50°F / 10°C 82% 30.06 in
(1018 mb)
E 8.1 mph
(E 13 kph)
- 10SM
09:15
Mostly Cloudy
54°F / 12°C 50°F / 10°C 88% 30.06 in
(1018 mb)
E 6.9 mph
(E 11 kph)
- 10SM
08:55
Overcast
52°F / 11°C 50°F / 10°C 94% 30.06 in
(1018 mb)
ESE 5.8 mph
(ESE 9 kph)
- 7SM
08:35
Overcast
Fog And Mist
50°F / 10°C 50°F / 10°C 100% 30.06 in
(1018 mb)
E 4.6 mph
(E 7 kph)
- 5SM
08:15
Overcast
Fog And Mist
50°F / 10°C 50°F / 10°C 100% 30.06 in
(1018 mb)
ESE 4.6 mph
(ESE 7 kph)
- 5SM
07:55
Overcast
Fog And Mist
46°F / 8°C 46°F / 8°C 100% 30.04 in
(1017 mb)
Calm - 4SM
07:35
Mostly Cloudy
Fog And Mist
45°F / 7°C 45°F / 7°C 100% 30.04 in
(1017 mb)
Calm - 2 1/2SM
07:15
Obscured
Fog
43°F / 6°C 43°F / 6°C 100% 30.04 in
(1017 mb)
Calm - 1/2SM
06:55
Partly Cloudy
Fog
43°F / 6°C 43°F / 6°C 100% 30.04 in
(1017 mb)
Calm - 1/2SM
06:35
Partly Cloudy
Fog And Mist
45°F / 7°C 43°F / 6°C 93% 30.04 in
(1017 mb)
Calm - 1 1/2SM
06:15
Mostly Cloudy
Fog And Mist
45°F / 7°C 45°F / 7°C 100% 30.04 in
(1017 mb)
Calm - 1SM
05:55
Clear
Fog And Mist
45°F / 7°C 45°F / 7°C 100% 30.04 in
(1017 mb)
Calm - 3SM
05:35
Clear
Fog And Mist
45°F / 7°C 45°F / 7°C 100% 30.04 in
(1017 mb)
Calm - 3SM
05:15
Clear
46°F / 8°C 46°F / 8°C 100% 30.04 in
(1017 mb)
Calm - 7SM
04:55
Clear
48°F / 9°C 46°F / 8°C 94% 30.04 in
(1017 mb)
Calm - 7SM
04:35
Partly Cloudy
50°F / 10°C 46°F / 8°C 88% 30.01 in
(1016 mb)
SE 3.5 mph
(SE 6 kph)
- 10SM
04:15
Partly Cloudy
50°F / 10°C 48°F / 9°C 94% 30.01 in
(1016 mb)
SE 3.5 mph
(SE 6 kph)
- 10SM
03:55
Mostly Cloudy
50°F / 10°C 48°F / 9°C 94% 30.01 in
(1016 mb)
ESE 5.8 mph
(ESE 9 kph)
- 10SM
03:35
Overcast
52°F / 11°C 50°F / 10°C 94% 30.01 in
(1016 mb)
E 4.6 mph
(E 7 kph)
- 10SM
03:15
Overcast
52°F / 11°C 48°F / 9°C 88% 30.01 in
(1016 mb)
E 4.6 mph
(E 7 kph)
- 10SM
02:55
Mostly Cloudy
50°F / 10°C 46°F / 8°C 88% 30.01 in
(1016 mb)
Calm - 10SM
02:35
Partly Cloudy
52°F / 11°C 46°F / 8°C 82% 30.01 in
(1016 mb)
E 3.5 mph
(E 6 kph)
- 10SM
02:15
Overcast
54°F / 12°C 48°F / 9°C 82% 30.04 in
(1017 mb)
E 3.5 mph
(E 6 kph)
- 10SM
01:55
Overcast
54°F / 12°C 46°F / 8°C 77% 30.04 in
(1017 mb)
E 4.6 mph
(E 7 kph)
- 10SM
01:35
Overcast
54°F / 12°C 46°F / 8°C 77% 30.04 in
(1017 mb)
E 5.8 mph
(E 9 kph)
- 10SM
01:15
Overcast
54°F / 12°C 46°F / 8°C 77% 30.04 in
(1017 mb)
ESE 3.5 mph
(ESE 6 kph)
- 10SM
00:55
Overcast
54°F / 12°C 46°F / 8°C 77% 30.04 in
(1017 mb)
E 5.8 mph
(E 9 kph)
- 10SM
00:35
Overcast
54°F / 12°C 46°F / 8°C 77% 30.04 in
(1017 mb)
E 3.5 mph
(E 6 kph)
- 10SM
00:15
Overcast
54°F / 12°C 46°F / 8°C 77% 30.04 in
(1017 mb)
Calm - 10SM
Time Weather Temperature Dewpoint Humidity Pressure Winds Precip Visibility


Weather for websites

WeatherForYou.com, LLC is not responsible for any damages or problems caused by this service. Current weather conditions are obtained from the closest station including government and personal stations which may have varying degrees of accuracy. Weather forecasts are derived from the NOAA NDFD. Like all things, this site belongs to Jesus Christ... He just trusts me to maintain it. If you have any questions or comments email webmaster@weatherforyou.com

Copyright © 2014, WeatherForYou.com LLC. All rights reserved.